Voltar ao catálogo

STARLINK-3107

AtivoComunicaçõesVLEO
NORAD 49171·PAYLOAD·🇺🇸 United States

Lançado Sep 14, 2021 de Vandenberg Space Force Base

Loading…

Próximas Passagens (próximas 24 horas)

TLE

AtualizadoSource: CelesTrak SupGP

Época: Sep 14, 2026, 20:27 UTC

1 49171C 21082AT  26257.85256944 -.00040422  00000+0 -20359-2 0  2571
2 49171  69.9949 158.9176 0006700 275.0247 151.8663 15.17084976    16

Acompanhe STARLINK-3107 em tempo real com AllMySat

Download on the App Store